GFSSGP_700_temp_021.txt.gz
Temp
11 11 11 11 11 11 12 12 12 12 12 12 12 12 13 13 13 13 13 13 13 12 12 11 11 11 10 10 9 9 9 8 8 8 8 8 8 8 8 8 8 8 8 8 8 8 8 8 8
11 11 11 10 10 10 12 12 12 12 13 13 13 13 13 13 13 13 13 13 12 12 12 11 11 11 10 9 9 9 9 8 8 8 8 8 8 8 8 8 8 8 7 7 8 8 7 8 8
11 11 10 10 10 11 12 13 13 13 12 13 13 13 13 13 13 13 13 13 12 12 12 11 11 10 10 10 9 9 9 8 8 8 8 8 8 8 8 8 8 9 8 8 7 7 7 7 7
11 11 10 11 11 12 13 12 12 13 13 13 13 13 13 13 13 13 13 12 12 12 12 11 11 10 10 10 9 9 9 8 8 8 8 7 8 8 8 7 7 8 8 7 7 7 6 6 6
11 11 10 11 12 13 13 12 12 12 12 13 13 13 13 13 13 12 12 12 12 12 12 11 11 10 10 10 9 9 9 8 8 8 8 7 7 7 7 7 7 6 7 7 7 7 6 6 6
10 10 11 12 13 13 13 13 13 12 12 12 12 13 13 12 12 12 12 12 12 12 12 11 11 10 10 10 9 9 9 8 8 8 7 7 7 7 6 6 6 6 6 7 6 5 5 4 5
10 10 11 12 13 13 13 13 13 13 12 12 12 12 12 12 12 11 12 12 12 12 12 11 11 10 10 9 9 9 9 8 8 7 7 6 6 6 6 6 6 6 6 6 6 6 5 4 5
10 10 11 12 13 14 14 13 13 12 12 12 12 11 12 12 12 12 12 12 12 12 12 11 11 10 10 10 9 9 9 8 8 7 7 6 6 6 6 5 5 6 6 6 6 6 6 5 5
9 8 10 12 13 14 13 13 12 12 12 12 12 12 11 11 11 12 12 12 12 12 12 11 11 10 10 10 10 9 9 8 7 7 7 6 6 6 6 5 5 5 5 5 5 5 6 6 6
10 9 10 13 13 13 12 12 11 11 12 13 12 12 11 11 11 11 12 12 12 12 12 11 11 10 10 10 10 9 8 8 7 7 6 6 6 5 5 5 5 5 4 4 4 5 5 5 5
11 10 12 12 12 12 11 12 11 11 12 13 12 13 12 12 12 12 12 12 12 11 11 11 11 11 10 10 9 9 8 7 7 6 6 6 5 5 4 4 4 4 4 4 4 4 4 4 4
10 11 12 12 11 10 11 11 11 10 13 13 13 12 12 12 11 12 11 12 12 11 11 11 11 11 10 10 9 9 8 7 7 6 6 6 5 5 4 4 4 4 4 4 3 3 3 3 4
10 10 11 12 11 11 10 11 11 12 13 13 12 12 12 12 11 11 11 12 12 12 11 11 11 11 10 10 9 8 8 7 6 6 6 6 5 4 3 4 4 4 4 4 2 2 2 2 3
9 9 10 10 10 11 10 11 9 12 12 12 12 12 12 11 11 11 11 12 12 12 12 11 11 11 10 9 9 8 7 7 6 6 6 5 4 4 3 3 3 3 3 3 2 2 2 2 3
9 9 9 9 10 10 10 10 10 12 12 12 12 12 12 12 11 12 11 12 12 12 12 11 11 10 10 9 9 7 7 6 6 6 6 5 4 3 3 3 3 3 3 2 2 2 2 2 2
8 8 7 8 10 10 9 10 11 12 11 11 11 12 12 12 11 12 12 12 12 12 12 11 11 10 10 9 8 7 7 6 6 6 5 5 4 3 3 3 3 3 3 1 2 2 2 2 3
7 8 8 7 8 9 10 11 10 11 11 11 11 11 11 11 11 12 12 12 12 12 12 12 11 10 9 9 8 7 7 6 6 5 5 4 4 3 3 3 2 3 3 2 2 2 2 2 2
6 4 6 6 7 10 10 10 10 11 11 11 11 11 11 12 12 12 12 13 13 12 12 12 11 10 9 9 8 7 7 6 6 5 5 4 4 3 3 3 2 2 2 2 2 2 2 2 1
7 6 6 7 9 9 10 10 9 11 11 11 11 11 12 12 12 13 13 13 12 12 12 12 11 11 10 9 8 7 7 6 5 5 4 4 4 3 3 2 2 2 1 2 2 1 2 2 1
6 6 6 6 8 9 9 9 9 10 11 10 10 12 12 13 13 13 13 13 12 12 12 11 11 10 9 8 7 7 6 6 5 4 4 4 4 3 2 2 2 1 1 1 1 2 2 2 2
5 5 5 6 7 7 7 7 7 10 10 10 11 12 12 12 12 13 13 13 12 12 12 11 11 9 8 7 7 7 6 5 4 4 4 4 3 3 2 2 2 2 2 2 2 2 2 2 1
4 6 5 5 5 7 7 8 8 9 9 10 12 12 12 12 12 13 13 12 12 12 11 11 10 9 8 7 7 6 6 5 4 4 4 3 3 2 2 2 2 2 2 2 2 2 2 2 1
6 5 5 5 5 5 6 6 7 8 10 11 12 12 12 12 12 12 12 12 12 11 11 10 9 8 7 7 7 6 5 5 4 4 3 3 2 2 2 2 2 2 2 2 1 2 2 1 1
6 5 5 5 5 6 6 6 7 8 11 12 12 12 12 13 13 13 13 12 12 11 10 10 9 8 7 7 6 6 5 5 4 3 3 3 2 2 2 2 2 2 2 2 2 2 1 1 1
4 5 6 6 5 6 7 6 7 10 11 11 12 12 12 12 12 12 12 12 11 10 10 9 8 7 7 7 6 5 5 4 3 3 3 3 3 2 2 2 2 2 2 2 2 2 1 1 1
4 5 7 6 7 9 6 7 8 12 12 11 12 12 12 12 12 12 12 11 10 9 9 8 7 7 7 6 6 5 4 4 4 3 3 3 3 3 2 2 2 2 2 2 2 2 2 2 2
4 5 6 7 6 8 7 8 9 11 12 12 12 12 13 13 12 12 11 10 9 9 8 8 7 7 7 6 5 5 4 4 4 3 3 3 3 3 2 2 2 2 2 2 2 2 2 1 1
6 5 4 6 8 7 8 8 10 11 12 12 13 13 13 13 13 12 11 10 9 8 8 8 7 7 7 6 5 4 4 4 3 3 3 3 3 3 2 2 2 2 2 2 2 2 2 2 2
5 5 6 6 7 9 9 10 10 12 12 12 12 13 13 13 12 11 10 9 8 8 8 8 7 7 6 5 5 4 4 3 3 3 3 3 3 3 2 2 2 2 2 2 3 2 2 2 2
6 6 5 7 6 7 8 10 11 11 12 12 12 13 12 12 11 10 10 9 9 8 8 8 7 7 6 5 5 4 4 3 3 3 3 3 3 3 2 2 2 2 2 2 2 2 3 3 3

GFSSGP_700_temp_024.txt.gz
Temp
12 12 11 11 11 11 13 14 13 14 13 13 13 13 14 13 14 14 13 13 13 12 12 12 12 11 11 11 10 10 9 9 9 8 8 8 8 8 8 8 8 8 8 8 8 8 8 9 9
11 11 11 9 12 14 15 13 13 13 13 13 13 13 13 13 13 13 13 13 13 12 12 12 12 11 11 11 10 9 9 9 9 8 8 8 8 8 8 8 8 8 8 8 8 8 8 8 8
11 11 9 11 13 15 16 14 14 13 12 13 13 13 13 13 13 13 13 13 12 12 12 12 11 11 11 10 10 9 9 9 9 8 8 8 8 8 8 8 8 7 7 7 7 8 7 7 7
10 10 10 11 14 14 14 14 13 13 13 13 13 13 13 13 13 13 12 12 12 12 12 12 11 11 10 10 10 9 9 9 9 8 8 8 8 8 8 7 7 8 7 7 6 6 7 7 7
10 9 11 12 13 13 13 13 13 13 13 13 13 13 13 13 13 13 12 12 12 12 12 12 11 11 10 10 10 9 9 9 9 8 8 8 8 8 7 7 7 7 6 7 5 5 6 6 6
8 9 11 13 14 13 13 13 13 13 13 13 13 13 13 13 13 13 13 12 12 12 12 12 11 11 10 10 10 10 9 9 9 8 8 8 8 7 7 7 6 6 6 6 6 5 4 4 4
11 10 12 13 13 13 13 13 13 13 13 13 12 12 13 12 12 12 12 12 12 12 12 12 11 11 11 10 10 10 10 9 9 8 8 8 7 7 7 6 6 6 6 6 6 6 5 4 4
10 10 11 13 13 13 13 12 12 13 13 12 12 12 12 12 12 12 12 12 12 12 12 11 11 11 10 10 10 10 10 9 9 8 8 8 7 7 7 6 6 5 6 6 6 6 5 5 5
10 9 11 13 13 13 12 12 12 12 12 12 11 12 12 12 12 12 12 12 12 12 12 11 11 11 10 10 10 10 9 9 8 8 7 7 7 7 6 6 5 6 5 5 5 5 5 5 5
9 10 11 12 12 12 12 11 11 11 11 11 11 12 11 12 12 12 11 11 12 12 12 11 11 11 11 10 10 9 9 8 8 8 7 7 7 6 6 6 6 5 5 5 5 5 5 5 5
9 10 11 12 12 11 11 11 11 11 11 12 11 11 11 11 12 12 12 11 12 11 12 12 11 11 11 10 10 9 9 8 8 8 7 7 6 6 6 5 5 5 5 5 5 5 5 5 5
9 10 10 10 11 11 10 10 10 11 10 12 11 10 12 12 12 12 11 11 11 12 12 12 12 11 10 10 10 9 9 8 8 7 7 7 6 6 6 5 5 4 4 4 5 5 5 4 4
9 9 9 9 9 9 9 10 11 10 10 13 12 12 12 12 12 12 13 12 11 12 12 12 12 11 11 10 10 9 9 8 8 7 7 6 6 6 5 5 4 4 4 4 4 4 4 3 3
9 9 9 9 9 10 10 10 10 10 12 13 11 12 12 11 12 12 12 12 11 12 12 12 12 11 11 10 10 9 9 8 8 7 7 6 6 5 5 4 3 3 3 3 3 3 2 2 2
8 9 9 8 9 9 10 10 10 11 12 12 12 12 11 12 12 12 12 11 11 12 12 12 12 12 11 10 10 9 9 8 8 7 6 6 6 5 5 4 3 3 3 3 3 3 3 2 3
7 8 9 9 9 9 9 10 11 11 11 11 11 11 12 12 12 12 11 11 11 12 12 12 12 12 12 11 10 9 8 8 7 7 6 6 6 5 4 4 3 3 3 3 3 2 2 2 3
8 8 9 9 10 9 9 10 11 11 11 10 11 11 11 12 12 11 11 11 12 12 12 12 12 12 12 11 9 9 8 8 7 6 6 6 5 5 4 4 3 3 3 3 2 2 2 3 3
9 9 9 10 11 9 9 10 10 11 10 10 10 10 10 11 12 11 11 12 12 12 12 12 12 12 12 11 11 9 8 8 7 6 6 6 5 5 4 4 3 3 2 2 2 2 2 2 2
8 10 10 10 10 10 9 10 10 11 10 9 10 10 10 11 12 12 12 12 13 13 13 12 12 12 12 11 10 8 8 7 6 6 6 5 5 4 4 3 3 3 2 1 1 2 2 2 2
7 8 9 10 10 9 9 9 10 10 10 9 10 10 10 11 12 12 12 13 13 13 13 12 12 12 11 10 9 8 7 7 6 6 6 5 4 4 3 3 2 2 2 2 2 2 2 2 2
7 7 8 9 9 9 8 8 8 9 9 10 10 10 11 12 12 12 13 13 13 13 12 12 12 11 11 10 9 8 7 6 6 6 5 4 4 3 3 2 2 2 2 2 2 2 2 2 2
8 7 7 7 8 8 9 10 9 10 10 10 10 10 10 11 12 12 13 13 13 13 13 12 11 11 10 9 8 7 6 6 6 5 4 4 3 3 3 2 2 2 2 2 2 2 2 2 2
7 8 7 7 7 7 8 9 9 9 9 9 10 10 11 11 12 12 12 12 13 12 12 11 11 10 9 8 7 7 6 6 5 4 4 3 3 3 3 2 2 2 2 2 2 2 2 2 2
7 7 7 7 7 9 8 8 9 9 10 10 10 11 11 12 12 13 12 13 13 12 11 11 10 9 8 7 7 7 6 5 5 4 3 3 3 3 3 3 2 2 2 2 2 2 2 2 2
6 6 9 9 9 10 9 9 9 10 10 10 10 11 11 12 12 13 13 12 12 11 11 10 9 9 8 7 7 6 6 5 5 4 4 4 4 3 3 3 2 3 3 2 2 2 2 2 2
6 7 11 10 11 12 10 10 10 10 10 10 10 10 11 12 12 12 12 12 11 11 10 9 9 8 7 7 7 6 5 5 4 4 4 4 4 3 3 3 3 3 3 3 2 2 2 2 2
7 7 9 11 10 12 12 10 10 11 10 10 10 10 12 12 12 12 12 11 11 10 9 9 8 7 7 7 6 5 5 4 4 4 4 4 4 3 3 3 3 3 3 3 2 2 2 2 1
7 7 8 9 10 10 13 11 12 12 11 11 11 12 12 12 12 12 11 11 11 10 9 8 8 8 7 6 6 5 5 4 4 4 4 4 4 3 3 3 3 3 3 3 2 2 2 2 2
7 8 8 9 10 12 12 13 11 11 12 12 12 12 13 13 13 12 11 11 10 9 9 8 8 7 7 6 6 5 4 4 4 4 4 3 4 3 3 3 3 3 2 2 2 3 2 2 2
8 8 8 9 9 10 12 13 11 11 11 11 11 13 13 13 12 12 11 10 10 9 8 8 8 7 7 6 6 5 4 4 3 4 4 3 4 3 3 3 3 3 2 3 3 3 3 3 2

GFSSGP_700_temp_030.txt.gz
Temp
12 12 12 12 11 12 15 17 18 18 17 17 16 16 16 16 16 15 14 13 14 13 13 13 12 12 12 12 11 11 10 10 9 9 9 9 9 9 9 9 9 9 9 9 9 8 9 9 8
12 12 12 11 11 14 16 18 18 17 16 16 16 16 16 16 15 14 13 13 14 13 13 13 12 12 12 11 11 11 10 10 9 9 9 9 9 9 8 8 9 9 8 8 8 8 8 8 8
11 12 10 11 12 14 17 17 17 16 15 15 16 16 16 15 14 14 14 14 13 13 13 12 12 12 12 11 11 11 10 10 10 9 9 9 9 9 9 8 8 8 8 8 8 8 8 8 8
11 11 11 11 13 15 16 16 16 15 16 16 16 16 15 15 14 14 14 13 13 13 13 13 12 12 11 11 11 11 10 10 10 10 9 9 9 9 9 8 8 8 8 7 7 7 7 7 7
11 10 11 13 15 16 16 17 16 16 16 16 16 16 15 14 14 14 14 13 12 12 13 12 12 12 11 11 11 11 10 10 10 10 9 9 9 9 8 8 8 8 7 7 6 5 6 6 6
10 10 11 13 15 16 17 17 17 17 16 16 16 15 15 14 13 13 13 13 12 11 11 12 12 12 11 11 11 11 10 10 10 9 9 9 9 9 8 8 8 8 7 7 7 6 6 6 5
10 10 12 13 15 16 17 16 16 16 16 16 16 15 15 13 13 13 13 12 12 12 11 13 12 12 12 11 11 11 10 10 10 9 9 9 9 9 8 8 8 8 7 7 7 7 6 6 6
9 9 11 13 14 15 16 16 15 16 16 15 15 14 14 14 13 13 12 13 12 12 11 11 12 12 12 11 11 11 11 10 10 10 9 9 9 9 8 8 8 8 7 7 7 7 6 6 6
8 9 10 12 14 15 15 15 16 15 15 15 14 14 14 14 14 13 12 12 13 13 12 11 11 11 12 12 11 11 11 11 10 10 9 9 9 9 8 9 8 8 8 7 7 6 6 6 6
8 9 11 12 13 14 15 15 15 14 14 14 14 14 14 14 13 13 12 13 13 13 13 12 11 12 12 12 12 11 11 11 10 10 10 9 9 9 8 8 8 8 7 7 6 6 6 5 6
9 9 10 12 13 14 14 14 14 14 14 14 13 13 14 13 13 13 12 12 12 12 13 12 12 12 11 12 12 12 12 11 10 10 10 9 9 9 8 8 8 8 7 7 6 6 6 5 5
9 10 10 11 12 13 13 13 13 13 14 14 14 14 13 13 13 12 12 12 12 12 12 12 12 11 11 11 11 12 12 12 11 10 10 10 9 9 8 7 7 7 7 6 6 6 5 5 5
10 10 11 11 12 12 13 13 13 13 13 13 13 13 13 13 12 12 12 12 12 12 12 12 11 11 11 10 11 11 11 12 11 11 10 10 9 9 8 8 7 7 6 5 5 5 4 4 4
10 10 11 11 12 12 13 13 13 13 13 13 13 13 13 13 13 12 12 12 12 12 12 12 11 11 11 10 11 10 11 11 11 10 9 10 9 8 8 7 7 7 6 6 5 5 4 4 4
10 10 11 11 12 12 12 12 13 13 13 13 13 13 13 13 13 12 12 12 12 12 11 11 11 10 10 10 11 10 11 11 10 9 9 10 9 8 7 7 7 7 6 6 5 4 4 4 4
9 10 10 11 11 12 12 12 12 13 13 13 13 13 13 13 13 13 12 12 12 11 11 11 11 11 11 11 11 11 11 11 10 9 9 8 8 7 7 7 6 6 6 5 5 4 4 4 4
9 10 10 10 11 11 12 12 12 12 13 13 12 12 12 13 13 13 12 12 11 11 11 11 11 11 11 11 11 11 11 11 10 9 9 8 8 7 7 6 6 5 5 5 4 4 3 4 3
9 9 10 10 12 12 12 12 12 12 13 13 13 13 12 12 12 13 12 11 11 11 11 11 11 11 11 11 11 12 12 11 11 8 8 8 7 7 7 7 6 5 5 4 4 3 3 3 3
9 10 10 11 12 12 12 12 12 13 13 13 13 13 12 12 12 13 12 12 11 11 11 11 12 12 12 12 12 12 12 11 9 8 8 7 7 6 6 6 5 5 4 3 3 3 3 2 3
8 9 10 11 12 12 12 13 13 13 13 13 13 13 12 12 12 12 12 11 11 11 11 12 12 12 12 12 12 11 11 9 8 7 7 7 7 6 6 5 4 4 3 3 3 3 3 2 2
8 9 9 10 11 11 12 12 12 13 13 13 13 13 12 12 11 12 11 11 11 11 11 12 12 12 12 12 11 11 10 8 8 7 6 7 7 6 5 4 4 4 3 3 3 3 3 2 2
8 9 9 10 10 11 11 13 12 12 13 13 13 12 12 12 12 11 11 11 11 11 11 12 12 12 12 12 11 10 8 7 7 7 6 7 6 5 5 4 4 4 3 3 3 3 3 3 3
8 9 10 10 11 11 11 12 12 12 13 13 13 13 12 12 12 12 12 11 11 11 12 12 12 12 12 11 10 9 8 7 6 6 6 6 5 5 4 4 4 4 3 3 3 3 3 3 3
8 8 9 10 11 12 11 11 12 12 12 13 13 13 13 12 12 12 11 11 11 12 12 12 12 12 11 10 9 8 7 7 7 7 6 6 5 5 4 4 4 4 3 3 3 3 3 3 3
7 8 10 10 11 12 12 12 12 12 12 13 13 13 12 12 12 12 11 11 11 12 12 12 11 11 10 9 8 8 7 7 6 6 5 5 5 5 4 4 4 4 3 3 3 3 3 2 2
7 8 10 9 11 12 11 12 12 12 13 13 13 13 12 12 12 11 11 12 12 12 12 12 11 10 9 8 8 8 7 7 6 6 5 5 5 5 4 4 4 4 3 3 3 3 2 2 2
7 8 9 10 12 13 14 13 13 13 13 13 13 12 12 11 12 12 12 12 12 12 12 11 10 9 8 8 8 8 7 7 6 5 5 5 5 5 4 4 4 3 3 3 3 2 3 3 2
6 8 9 10 10 11 13 14 15 14 14 14 13 12 11 11 11 12 12 12 12 11 11 10 9 8 8 8 8 8 7 6 6 5 5 5 5 5 4 4 3 3 3 3 3 3 3 2 2
6 7 9 10 11 12 13 15 15 14 14 14 13 12 11 11 11 12 12 12 11 11 10 9 9 8 8 8 8 7 7 6 5 5 5 4 5 4 4 4 3 3 3 3 3 3 3 2 2
6 7 8 10 10 11 13 14 14 14 14 14 13 12 12 11 12 12 12 12 11 10 10 9 9 9 8 8 8 7 6 6 5 5 5 5 5 4 4 3 3 4 3 3 3 3 3 2 2

GFSSGP_700_temp_033.txt.gz
Temp
12 12 12 12 12 13 14 17 15 15 16 16 16 16 16 16 15 15 14 15 14 13 13 13 13 12 12 12 12 11 11 11 10 10 10 10 10 10 10 9 9 9 9 9 9 9 9 9 9
12 12 12 12 12 12 14 16 15 16 16 16 16 16 16 15 15 15 15 14 14 13 13 13 13 12 12 12 11 11 11 10 10 10 10 10 9 9 9 9 9 9 9 9 8 8 8 8 8
11 12 12 11 12 13 15 15 15 14 15 15 16 15 16 15 14 15 14 14 14 13 13 13 12 12 12 12 11 11 11 11 10 10 10 9 9 9 9 9 8 8 9 9 8 8 7 8 8
11 11 11 12 13 15 14 14 15 13 14 14 15 16 15 14 15 15 14 14 14 14 13 12 12 12 12 11 11 11 11 11 10 10 10 10 9 9 9 9 9 8 8 8 8 7 7 6 6
11 11 11 11 13 15 15 15 16 15 13 14 13 15 15 14 14 14 14 13 13 13 13 13 12 12 11 11 11 11 11 11 10 10 10 10 9 9 9 9 9 8 8 8 8 7 6 6 6
11 10 10 11 13 15 15 16 16 15 15 15 14 13 15 14 14 14 14 13 13 13 13 12 12 12 12 12 11 11 11 11 11 10 10 10 9 9 9 9 9 8 8 8 7 7 7 6 6
11 9 11 11 13 14 14 15 15 16 16 15 15 15 14 14 13 13 13 13 13 12 12 12 12 12 12 12 12 11 11 11 11 10 10 10 9 9 9 9 8 8 8 8 7 7 7 7 6
10 9 11 11 12 13 15 15 15 15 15 15 15 15 14 14 14 13 13 13 12 12 12 13 12 12 12 12 12 12 12 11 11 11 10 10 10 9 9 9 8 8 8 8 7 7 7 7 7
10 8 9 12 13 15 14 14 14 15 14 14 14 14 14 14 14 13 12 12 13 12 13 12 12 12 12 11 12 12 11 11 11 11 10 10 10 10 9 9 8 8 8 8 8 7 7 6 6
8 8 8 13 13 13 13 13 14 14 14 14 14 14 14 14 14 13 13 12 12 12 12 13 12 12 12 11 11 11 11 11 11 11 10 10 10 9 9 9 8 8 8 8 8 7 6 6 6
9 10 10 11 12 12 12 13 13 14 14 14 13 13 14 13 13 13 13 13 13 13 12 12 12 12 12 12 12 11 11 11 11 11 11 10 9 9 9 8 8 8 8 8 8 7 6 6 5
9 10 9 11 11 11 12 12 12 13 13 13 13 13 13 13 13 13 13 13 13 13 12 12 12 12 12 12 11 11 11 11 11 11 11 10 9 9 8 8 8 8 8 7 7 7 6 6 5
9 10 9 10 11 11 11 12 12 12 13 13 13 13 13 13 13 13 13 13 12 12 12 12 12 12 11 11 11 11 10 11 11 11 11 10 9 9 8 8 7 7 7 7 7 6 6 6 5
9 8 9 9 10 10 11 11 12 12 12 13 13 13 13 13 13 13 13 13 12 12 12 12 12 12 11 11 11 10 10 10 11 11 11 10 9 9 8 7 7 7 7 7 5 5 5 5 4
8 8 8 9 9 10 11 11 11 12 12 12 12 13 13 13 13 13 13 13 13 12 12 12 12 12 11 11 10 10 10 10 10 11 11 11 10 9 8 7 7 6 6 6 5 5 5 4 4
7 7 8 9 9 10 10 11 11 11 12 12 12 12 12 13 13 12 13 13 13 12 12 12 12 11 11 11 10 9 9 10 10 11 11 11 10 8 7 7 6 6 6 6 5 5 4 4 4
6 6 7 8 9 9 10 11 11 11 11 12 12 12 12 12 12 13 12 12 12 12 12 12 12 11 11 11 10 10 10 10 10 10 9 9 9 7 7 7 6 6 6 5 4 4 4 3 3
6 7 7 8 9 10 10 10 11 12 12 12 12 13 13 13 13 13 12 12 12 12 12 12 11 11 11 11 11 10 10 11 10 9 9 8 7 7 7 6 6 6 5 4 4 4 3 3 2
6 7 8 8 8 9 10 10 11 12 12 12 12 12 13 13 13 13 12 12 12 12 12 11 11 11 11 11 11 11 11 11 10 9 9 8 7 7 6 6 6 5 4 4 3 3 2 2 2
5 7 7 8 9 10 10 11 11 12 12 12 12 13 13 13 13 13 12 12 12 11 11 11 11 11 11 12 12 11 11 11 10 9 8 7 7 6 6 5 5 4 4 3 3 3 3 3 3
5 5 6 7 8 9 10 10 11 12 12 12 12 12 13 13 13 13 12 12 12 11 11 11 11 11 12 12 12 11 11 11 9 8 7 7 7 6 5 5 4 4 4 4 3 3 3 2 2
4 5 6 7 8 8 9 9 10 11 11 12 12 12 13 13 13 13 12 12 11 11 11 11 11 11 12 12 12 11 10 9 8 8 8 7 6 6 5 4 4 4 4 4 3 3 3 2 2
5 5 6 7 8 8 9 10 10 11 11 11 12 13 13 13 13 13 12 12 11 11 11 11 11 12 12 12 11 10 9 9 8 7 6 6 5 4 4 4 4 4 4 4 3 3 3 3 2
5 6 6 7 8 7 9 9 10 10 11 11 12 12 12 13 13 13 12 12 11 11 11 11 11 12 12 11 10 9 9 8 7 6 6 5 5 5 4 4 4 4 4 4 3 3 3 3 3
4 5 5 5 6 6 9 9 10 11 11 11 12 12 13 13 13 12 12 12 11 11 11 11 12 11 11 10 9 9 8 7 7 6 5 5 5 5 5 4 4 4 4 4 4 4 4 3 3
4 5 5 3 5 7 8 9 10 11 12 12 12 12 13 13 12 12 12 11 12 11 11 12 11 11 11 9 9 8 7 7 6 5 5 5 5 5 4 4 4 4 4 4 4 3 3 3 3
4 4 6 6 7 8 9 10 12 12 13 13 12 12 12 12 12 12 12 12 12 12 12 11 11 11 10 9 8 8 7 7 6 5 5 5 5 5 4 4 4 4 4 3 3 3 3 2 2
2 4 5 6 4 4 9 10 11 13 13 14 13 12 12 12 12 12 11 12 12 12 11 11 11 10 9 8 8 8 7 6 6 5 5 5 5 5 5 5 4 4 4 3 3 3 2 2 2
3 4 4 5 7 6 6 9 12 13 14 14 13 13 13 12 11 11 12 12 12 12 11 11 10 9 9 8 8 7 7 6 5 5 5 5 5 5 5 4 4 4 3 3 3 3 2 2 2
1 1 4 4 6 8 8 9 12 13 14 14 14 13 12 12 12 11 12 12 12 11 11 10 9 9 8 8 7 7 6 5 5 5 4 4 5 5 4 4 4 4 3 3 3 3 3 2 2